Time_in_sec,gx,gy,gz
1314364291.32151508,0.23339042,0.00976179,-0.97233411
1314364291.36083889,0.23325465,0.00970227,-0.97236728
1314364291.41320705,0.23308332,0.00974983,-0.97240789
1314364291.46148443,0.23312466,0.00969958,-0.97239848
1314364291.51266527,0.23297623,0.00997614,-0.97243126
1314364291.56146908,0.23289883,0.00990588,-0.97245052
1314364291.61347055,0.23290030,0.01003833,-0.97244881
1314364291.66164970,0.23299951,0.00990800,-0.97242638
1314364291.71346831,0.23298588,0.00975615,-0.97243118
1314364291.76252341,0.23318849,0.00977673,-0.97238241
1314364291.81272006,0.23336374,0.00990190,-0.97233910
1314364291.86147594,0.23367230,0.00995408,-0.97226446
1314364291.91322803,0.23353872,0.00998564,-0.97229623
1314364291.96149302,0.23343998,0.00965175,-0.97232331
1314364292.01273465,0.23348065,0.00963647,-0.97231370
1314364292.06472898,0.23336919,0.00948650,-0.97234193
1314364292.11372828,0.23328395,0.00970046,-0.97236027
1314364292.16070557,0.23317482,0.00953354,-0.97238810
1314364292.21269751,0.23320907,0.00964459,-0.97237879
1314364292.26146698,0.23307625,0.00978880,-0.97240920
1314364292.31271076,0.23315596,0.00969307,-0.97239104
1314364292.36148047,0.23287153,0.00972594,-0.97245887
1314364292.41270232,0.23302970,0.00954512,-0.97242277
1314364292.46063399,0.23292614,0.00957497,-0.97244729
1314364292.51915145,0.23309504,0.00956007,-0.97240697
1314364292.56071758,0.23325149,0.00965399,-0.97236852
1314364292.61339331,0.23312044,0.00975031,-0.97239899
1314364292.66472721,0.23291009,0.00956997,-0.97245118
1314364292.71247268,0.23279982,0.00969683,-0.97247633
1314364292.76146960,0.23252365,0.00935326,-0.97254577
1314364292.81281590,0.23256343,0.00957443,-0.97253410
1314364292.86547208,0.23244353,0.00967481,-0.97256177
1314364292.91392326,0.23240657,0.00965387,-0.97257081
1314364292.96616650,0.23234742,0.00972574,-0.97258423
1314364293.01263833,0.23202490,0.00962113,-0.97266226
1314364293.07349491,0.23200153,0.00964322,-0.97266762
1314364293.11350584,0.23186030,0.00938090,-0.97270386
1314364293.16145778,0.23179530,0.00921270,-0.97272096
1314364293.21386862,0.23181873,0.00925093,-0.97271501
1314364293.26467323,0.23179317,0.00912861,-0.97272226
1314364293.31537986,0.23177166,0.00916527,-0.97272704
1314364293.36463714,0.23157990,0.00898250,-0.97277442
1314364293.42064953,0.23119599,0.00894661,-0.97286606
1314364293.47350788,0.23127900,0.00896621,-0.97284615
1314364293.51350927,0.23112757,0.00885427,-0.97288316
1314364293.56153035,0.23132345,0.00919812,-0.97283342
1314364293.62073302,0.23115152,0.00904458,-0.97287572
1314364293.66066670,0.23101388,0.00898743,-0.97290894
1314364293.71352196,0.23111326,0.00887116,-0.97288641
1314364293.76062727,0.23113565,0.00862387,-0.97288331
1314364293.82548952,0.23145018,0.00871192,-0.97280775
1314364293.87350321,0.23141560,0.00834228,-0.97281922
1314364293.91580057,0.23146637,0.00843706,-0.97280632
1314364293.96146965,0.23157448,0.00829734,-0.97278179
1314364294.01299143,0.23176566,0.00826530,-0.97273653
1314364294.06067443,0.23186227,0.00827162,-0.97271346
1314364294.11448812,0.23198867,0.00858767,-0.97268058
1314364294.16063452,0.23183091,0.00881631,-0.97271615
1314364294.21274185,0.23202565,0.00900480,-0.97266798
1314364294.26146364,0.23192669,0.00912283,-0.97269049
1314364294.31265402,0.23179716,0.00927603,-0.97271992
1314364294.36147475,0.23176348,0.00907197,-0.97272986
1314364294.41273403,0.23196358,0.00901737,-0.97268267
1314364294.46071053,0.23206861,0.00881196,-0.97265950
1314364294.51644444,0.23197199,0.00883259,-0.97268236
1314364294.56070280,0.23200496,0.00874617,-0.97267528
1314364294.61259413,0.23208685,0.00842458,-0.97265858
1314364294.66149354,0.23200871,0.00840885,-0.97267736
1314364294.71264434,0.23228129,0.00832536,-0.97261302
1314364294.76149273,0.23248846,0.00856662,-0.97256143
1314364294.81256747,0.23243968,0.00830258,-0.97257538
1314364294.86060286,0.23252286,0.00812960,-0.97255695
1314364294.91350985,0.23249471,0.00813065,-0.97256368
1314364294.96058941,0.23228516,0.00837192,-0.97261170
1314364295.02060652,0.23226288,0.00824150,-0.97261813
1314364295.06148219,0.23230183,0.00826306,-0.97260865
1314364295.11261249,0.23254754,0.00831331,-0.97254950
1314364295.16147685,0.23261000,0.00856641,-0.97253237
1314364295.21351624,0.23252315,0.00849152,-0.97255379
1314364295.26110291,0.23260060,0.00874775,-0.97253300
1314364295.31347084,0.23258109,0.00883519,-0.97253688
1314364295.36155891,0.23266799,0.00876770,-0.97251670
1314364295.41257000,0.23279363,0.00863655,-0.97248781
1314364295.46148372,0.23278850,0.00888376,-0.97248681
1314364295.51259899,0.23275916,0.00924181,-0.97249049
1314364295.56164217,0.23263969,0.00918096,-0.97251966
1314364295.61358213,0.23288157,0.00886727,-0.97246468
1314364295.67256689,0.23303830,0.00887753,-0.97242704
1314364295.71322250,0.23306418,0.00886990,-0.97242090
1314364295.76146555,0.23289023,0.00921533,-0.97245937
1314364295.82146835,0.23297292,0.00907394,-0.97244089
1314364295.86151195,0.23309520,0.00888679,-0.97241331
1314364295.91306376,0.23318696,0.00886776,-0.97239149
1314364295.96148396,0.23305103,0.00912337,-0.97242171
1314364296.01246977,0.23309082,0.00929400,-0.97241056
1314364296.06062627,0.23319645,0.00921276,-0.97238600
1314364296.11545682,0.23315897,0.00930837,-0.97239408
1314364296.16059041,0.23319015,0.00922372,-0.97238741
1314364296.21256733,0.23332381,0.00926791,-0.97235493
1314364296.27252865,0.23319029,0.00925549,-0.97238707
1314364296.31352568,0.23311131,0.00917106,-0.97240681
1314364296.36147141,0.23308737,0.00944720,-0.97240991
1314364296.41253853,0.23309144,0.00923910,-0.97241093
1314364296.46059203,0.23310972,0.00882106,-0.97241043
1314364296.51346707,0.23296550,0.00868486,-0.97244622
1314364296.56153584,0.23281442,0.00871031,-0.97248217
1314364296.61357045,0.23306875,0.00891521,-0.97241939
1314364296.66152287,0.23339888,0.00886103,-0.97234070
1314364296.71255112,0.23345150,0.00892317,-0.97232750
1314364296.77349281,0.23328672,0.00918492,-0.97236462
1314364296.81271887,0.23335590,0.00914398,-0.97234840
1314364296.86164188,0.23333223,0.00907030,-0.97235477
1314364296.92149520,0.23352972,0.00907288,-0.97230734
1314364296.96049380,0.23349893,0.00906925,-0.97231476
1314364297.01327586,0.23346454,0.00895839,-0.97232405
1314364297.06154418,0.23374245,0.00915542,-0.97225544
1314364297.11354566,0.23363648,0.00901215,-0.97228225
1314364297.16151333,0.23360048,0.00908721,-0.97229020
1314364297.21351480,0.23340793,0.00890451,-0.97233814
1314364297.26162362,0.23369350,0.00873150,-0.97227111
1314364297.31665874,0.23386873,0.00863105,-0.97222987
1314364297.36053395,0.23387624,0.00876033,-0.97222691
1314364297.41253638,0.23371439,0.00877948,-0.97226565
1314364297.46449280,0.23369823,0.00898366,-0.97226767
1314364297.51253438,0.23373006,0.00884278,-0.97226131
1314364297.56150770,0.23382657,0.00889777,-0.97223761
1314364297.62076187,0.23361841,0.00888171,-0.97228779
1314364297.66150355,0.23344169,0.00904965,-0.97232869
1314364297.71992183,0.23344386,0.00907900,-0.97232789
1314364297.76051021,0.23344716,0.00876969,-0.97232994
1314364297.81347179,0.23354590,0.00879847,-0.97230597
1314364297.86158681,0.23362342,0.00864734,-0.97228870
1314364297.91251254,0.23351862,0.00862429,-0.97231408
1314364297.96150541,0.23365014,0.00865710,-0.97228219
1314364298.01349974,0.23348217,0.00850011,-0.97232393
1314364298.06052923,0.23350224,0.00881779,-0.97231628
1314364298.11494708,0.23324943,0.00871646,-0.97237787
1314364298.16052413,0.23327659,0.00872930,-0.97237124
1314364298.21248078,0.23339154,0.00870428,-0.97234388
1314364298.27350998,0.23327378,0.00885062,-0.97237082
1314364298.31259561,0.23314854,0.00874952,-0.97240177
1314364298.36150146,0.23341537,0.00855742,-0.97233947
1314364298.41350079,0.23357129,0.00865784,-0.97230113
1314364298.46053886,0.23336336,0.00871734,-0.97235053
1314364298.51346421,0.23312082,0.00875811,-0.97240834
1314364298.56056571,0.23285921,0.00858303,-0.97247258
1314364298.62059093,0.23299131,0.00867599,-0.97244011
1314364298.66147685,0.23294629,0.00901908,-0.97244778
1314364298.72067046,0.23291898,0.00896522,-0.97245482
1314364298.76148820,0.23297637,0.00898206,-0.97244092
1314364298.81345582,0.23287307,0.00881159,-0.97246722
1314364298.87346387,0.23264267,0.00907838,-0.97251991
1314364298.91747355,0.23293553,0.00872429,-0.97245305
1314364298.96359110,0.23299438,0.00872968,-0.97243890
1314364299.01341558,0.23303162,0.00868978,-0.97243033
1314364299.06046724,0.23297509,0.00888598,-0.97244210
1314364299.12051058,0.23266115,0.00890220,-0.97251712
1314364299.17347479,0.23246404,0.00895024,-0.97256381
1314364299.21252251,0.23249063,0.00875786,-0.97255920
1314364299.26158929,0.23244797,0.00915907,-0.97256571
1314364299.31636167,0.23235421,0.00944530,-0.97258537
1314364299.36153555,0.23248623,0.00946655,-0.97255362
1314364299.41253281,0.23241839,0.00922746,-0.97257213
1314364299.47344279,0.23258618,0.00921056,-0.97253218
1314364299.51255751,0.23266429,0.00940121,-0.97251167
1314364299.56148171,0.23234764,0.00928062,-0.97258853
1314364299.62061453,0.23210938,0.00952592,-0.97264304
1314364299.66458869,0.23223540,0.00950809,-0.97261314
1314364299.71350551,0.23231850,0.00954814,-0.97259290
1314364299.76154733,0.23260774,0.00987647,-0.97252048
1314364299.81255484,0.23264595,0.00980739,-0.97251204
1314364299.87350702,0.23252285,0.00980945,-0.97254146
1314364299.92053008,0.23251108,0.00950012,-0.97254735
1314364299.96147895,0.23235876,0.00945812,-0.97258416
1314364300.01251507,0.23232532,0.00964844,-0.97259028
1314364300.06057024,0.23239676,0.00938387,-0.97257580
1314364300.11347699,0.23225694,0.00945444,-0.97260852
1314364300.16153407,0.23216302,0.00954602,-0.97263005
1314364300.22050762,0.23213216,0.00953865,-0.97263748
1314364300.27349448,0.23230866,0.00970623,-0.97259369
1314364300.31350994,0.23207095,0.00972927,-0.97265020
1314364300.36109018,0.23191196,0.00979543,-0.97268746
1314364300.41349840,0.23186698,0.00967737,-0.97269936
1314364300.46050930,0.23169666,0.00998696,-0.97273682
1314364300.52148199,0.23182941,0.00995683,-0.97270550
1314364300.56046438,0.23181170,0.01006098,-0.97270865
1314364300.61352730,0.23165457,0.01012185,-0.97274545
1314364300.67344499,0.23162063,0.00976082,-0.97275722
1314364300.71355152,0.23144387,0.00987177,-0.97279817
1314364300.76147223,0.23161835,0.00984956,-0.97275687
1314364300.82053614,0.23163079,0.00988960,-0.97275350
1314364300.86151934,0.23148117,0.01023064,-0.97278559
1314364300.91481495,0.23151763,0.01029581,-0.97277623
1314364300.96148396,0.23154696,0.01032198,-0.97276897
1314364301.01350331,0.23186913,0.01039379,-0.97269146
1314364301.07347345,0.23197223,0.01033290,-0.97266753
1314364301.11606741,0.23193824,0.01053063,-0.97267351
1314364301.16147542,0.23189413,0.01058437,-0.97268344
1314364301.22050238,0.23207493,0.01055934,-0.97264060
1314364301.26046801,0.23228397,0.01046372,-0.97259173
1314364301.31346655,0.23232417,0.01062186,-0.97258041
1314364301.36055541,0.23225669,0.01065105,-0.97259621
1314364301.41253710,0.23243821,0.01064562,-0.97255290
1314364301.47246242,0.23236469,0.01091067,-0.97256753
1314364301.52045846,0.23232960,0.01085420,-0.97257655
1314364301.56175828,0.23263729,0.01086316,-0.97250290
1314364301.62065792,0.23262564,0.01089886,-0.97250528
1314364301.66152501,0.23251453,0.01069728,-0.97253409
1314364301.71382689,0.23268510,0.01065568,-0.97249375
1314364301.76052332,0.23244674,0.01043910,-0.97255310
1314364301.82147431,0.23245623,0.01042861,-0.97255095
1314364301.87349653,0.23273676,0.01024907,-0.97248576
1314364301.92147374,0.23291417,0.01022802,-0.97244351
1314364301.96150327,0.23296452,0.01020309,-0.97243171
1314364302.02047634,0.23289770,0.01040215,-0.97244561
1314364302.06149840,0.23299950,0.01047801,-0.97242040
1314364302.11602426,0.23290834,0.01047069,-0.97244232
1314364302.16134095,0.23283226,0.01055807,-0.97245960
1314364302.21254873,0.23278501,0.01062676,-0.97247016
1314364302.26150084,0.23294463,0.01071882,-0.97243093
1314364302.32067442,0.23303755,0.01080887,-0.97240767
1314364302.36147738,0.23295682,0.01075081,-0.97242765
1314364302.42133427,0.23290460,0.01078518,-0.97243978
1314364302.46047473,0.23288362,0.01085603,-0.97244402
1314364302.51052451,0.23288335,0.01092019,-0.97244336
1314364302.56338763,0.23273704,0.01092445,-0.97247834
1314364302.62149835,0.23273329,0.01077125,-0.97248095
1314364302.67353988,0.23278262,0.01069807,-0.97246995
1314364302.71660113,0.23302178,0.01098211,-0.97240950
1314364302.76146364,0.23300709,0.01112221,-0.97241143
1314364302.81254387,0.23301431,0.01098038,-0.97241131
1314364302.86151648,0.23301889,0.01103776,-0.97240957
1314364302.92151618,0.23294211,0.01133832,-0.97242450
1314364302.96047831,0.23302462,0.01120523,-0.97240628
1314364303.01250315,0.23295042,0.01128436,-0.97242314
1314364303.07347488,0.23305141,0.01137502,-0.97239789
1314364303.11648846,0.23313703,0.01140380,-0.97237702
1314364303.16147232,0.23314235,0.01149872,-0.97237463
1314364303.21252608,0.23313775,0.01125603,-0.97237857
1314364303.26045561,0.23302577,0.01110414,-0.97240716
1314364303.31346154,0.23295490,0.01115508,-0.97242356
1314364303.36149693,0.23301137,0.01099510,-0.97241185
1314364303.41336632,0.23296756,0.01110304,-0.97242112
1314364303.46147394,0.23299813,0.01114231,-0.97241335
1314364303.52128839,0.23259890,0.01099994,-0.97251054
1314364303.56146955,0.23253972,0.01099070,-0.97252480
1314364303.61317563,0.23252413,0.01081499,-0.97253050
1314364303.67440748,0.23264337,0.01084753,-0.97250162
1314364303.71481442,0.23246029,0.01082471,-0.97254565
1314364303.76130700,0.23245680,0.01077003,-0.97254709
1314364303.82048249,0.23268499,0.01063028,-0.97249406
1314364303.86146045,0.23269932,0.01049420,-0.97249211
1314364303.91660094,0.23283630,0.01028906,-0.97246151
1314364303.96147037,0.23291839,0.01015049,-0.97244331
1314364304.01349735,0.23274168,0.01029010,-0.97248415
1314364304.06066847,0.23267004,0.01018360,-0.97250242
1314364304.11344981,0.23274744,0.01008674,-0.97248490
1314364304.16052055,0.23270134,0.00991950,-0.97249766
1314364304.21254539,0.23251471,0.01008014,-0.97254064
1314364304.26105046,0.23241178,0.00992555,-0.97256684
1314364304.31249666,0.23247211,0.01006174,-0.97255102
1314364304.36148453,0.23242445,0.01035774,-0.97255930
1314364304.41279602,0.23246321,0.01028835,-0.97255077
1314364304.46128559,0.23253370,0.01045598,-0.97253213
1314364304.52148724,0.23279046,0.01065063,-0.97246859
1314364304.56373930,0.23282418,0.01056228,-0.97246148
1314364304.61325216,0.23291992,0.01049891,-0.97243924
1314364304.67325091,0.23284633,0.01073959,-0.97245424
1314364304.71659374,0.23263760,0.01064367,-0.97250525
1314364304.76147056,0.23261238,0.01086798,-0.97250880
1314364304.82059407,0.23248193,0.01071827,-0.97254166
1314364304.86178398,0.23275018,0.01076520,-0.97247697
1314364304.91347742,0.23277573,0.01062400,-0.97247241
1314364304.96052718,0.23274703,0.01070157,-0.97247843
1314364305.01336122,0.23275163,0.01063404,-0.97247807
1314364305.07254100,0.23259307,0.01072026,-0.97251506
1314364305.11351657,0.23251162,0.01069461,-0.97253482
1314364305.16149139,0.23215265,0.01061023,-0.97262149
1314364305.21254969,0.23189415,0.01080051,-0.97268106
1314364305.26156783,0.23187745,0.01094935,-0.97268338
1314364305.31750321,0.23171395,0.01097841,-0.97272202
1314364305.36126447,0.23182090,0.01093768,-0.97269699
1314364305.41050887,0.23183071,0.01104955,-0.97269339
1314364305.46146536,0.23195276,0.01106953,-0.97266407
1314364305.52050209,0.23209983,0.01096006,-0.97263022
1314364305.56151557,0.23188506,0.01111984,-0.97267963
1314364305.62153006,0.23170916,0.01123316,-0.97272025
1314364305.66061139,0.23190418,0.01093088,-0.97267722
1314364305.71478820,0.23191922,0.01087071,-0.97267431
1314364305.76181674,0.23204482,0.01088591,-0.97264418
1314364305.82150698,0.23214859,0.01105763,-0.97261748
1314364305.87351012,0.23220536,0.01097807,-0.97260483
1314364305.91430616,0.23199927,0.01082107,-0.97265577
1314364305.96148086,0.23210763,0.01099766,-0.97262793
1314364306.01325417,0.23204679,0.01073125,-0.97264543
1314364306.06054378,0.23220242,0.01086931,-0.97260675
1314364306.12150955,0.23190947,0.01081351,-0.97267727
1314364306.16154885,0.23210808,0.01105065,-0.97262723
1314364306.21305394,0.23214038,0.01102879,-0.97261977
1314364306.26149130,0.23205598,0.01087855,-0.97264160
1314364306.31312132,0.23177836,0.01095307,-0.97270696
1314364306.36148643,0.23184565,0.01069251,-0.97269382
1314364306.42078424,0.23188509,0.01076469,-0.97268362
1314364306.46155357,0.23195348,0.01090287,-0.97266577
1314364306.52156806,0.23178804,0.01068527,-0.97270763
1314364306.56270075,0.23168382,0.01070496,-0.97273224
1314364306.62955761,0.23160147,0.01054357,-0.97275361
1314364306.66147399,0.23162486,0.01026829,-0.97275099
1314364306.71260595,0.23155707,0.01054723,-0.97276414
1314364306.76169777,0.23176981,0.01058368,-0.97271308
1314364306.81247163,0.23203248,0.01090716,-0.97264689
1314364306.86052871,0.23192273,0.01080437,-0.97267421
1314364306.92152619,0.23205797,0.01077554,-0.97264227
1314364306.96048737,0.23226752,0.01082701,-0.97259168
1314364307.02047801,0.23219545,0.01087419,-0.97260836
1314364307.06149244,0.23205019,0.01109927,-0.97264049
1314364307.12466431,0.23210960,0.01094039,-0.97262811
1314364307.16071868,0.23254671,0.01093852,-0.97252371
1314364307.22122526,0.23244946,0.01100100,-0.97254626
1314364307.26151347,0.23254454,0.01121811,-0.97252105
1314364307.32059693,0.23241727,0.01138893,-0.97254949
1314364307.36151195,0.23227967,0.01126837,-0.97258376
1314364307.41352367,0.23201695,0.01136368,-0.97264536
1314364307.47322750,0.23214039,0.01096091,-0.97262053
1314364307.51351452,0.23224541,0.01110784,-0.97259379
1314364307.56148791,0.23223173,0.01120384,-0.97259596
1314364307.61323500,0.23240795,0.01114980,-0.97255449
1314364307.66060162,0.23240354,0.01137882,-0.97255289
1314364307.71510625,0.23243554,0.01111244,-0.97254832
1314364307.76059818,0.23227276,0.01104178,-0.97258801
1314364307.81327081,0.23213000,0.01071095,-0.97262580
1314364307.87349916,0.23238855,0.01083212,-0.97256271
1314364307.91323757,0.23269285,0.01087322,-0.97248949
1314364307.96147442,0.23268986,0.01075822,-0.97249149
1314364308.01250935,0.23249536,0.01058752,-0.97253988
1314364308.06051469,0.23242020,0.01039209,-0.97255995
1314364308.11346316,0.23266880,0.01034943,-0.97250096
1314364308.16053629,0.23277711,0.01034385,-0.97247510
1314364308.21346688,0.23300334,0.01045326,-0.97241975
1314364308.26548791,0.23291926,0.01063438,-0.97243793
1314364308.31312490,0.23295625,0.01067794,-0.97242859
1314364308.36146164,0.23300555,0.01070716,-0.97241646
1314364308.41312528,0.23310141,0.01044520,-0.97239633
1314364308.46052313,0.23310125,0.01040418,-0.97239681
1314364308.51454544,0.23314606,0.01059566,-0.97238400
1314364308.56146002,0.23326761,0.01058384,-0.97235498
1314364308.62118721,0.23318105,0.01074552,-0.97237397
1314364308.66147971,0.23318458,0.01044711,-0.97237637
1314364308.72161365,0.23321038,0.01054583,-0.97236912
1314364308.76146507,0.23307664,0.01039443,-0.97240282
1314364308.81256104,0.23299563,0.01028965,-0.97242334
1314364308.86164999,0.23324175,0.01012853,-0.97236603
1314364308.91629243,0.23315924,0.00999066,-0.97238725
1314364308.97255635,0.23331191,0.01005009,-0.97235001
1314364309.01483822,0.23338713,0.00994046,-0.97233309
1314364309.06176233,0.23361482,0.00987795,-0.97227905
1314364309.11351252,0.23357822,0.01015725,-0.97228496
